| time (UTC) | temp F | wind direction | speed knots | gust knots | rain 1hr in | rain 24hr in | rain mn in | humidity % | barometer mb |
| 20260906205415 | 101 | 246 | 3.5 | 7.8 | 0.00 | 0.00 | 0.00 | 37 | 1012.8 |
| 20260906204910 | 100 | 124 | 3.5 | 8.7 | 0.00 | 0.00 | 0.00 | 37 | 1013.1 |
| 20260906204409 | 101 | 194 | 2.6 | 4.3 | 0.00 | 0.00 | 0.00 | 37 | 1013.2 |
| 20260906203909 | 100 | 165 | 0.9 | 5.2 | 0.00 | 0.00 | 0.00 | 37 | 1013.1 |
| 20260906203405 | 100 | 216 | 2.6 | 5.2 | 0.00 | 0.00 | 0.00 | 37 | 1013.2 |
| 20260906202902 | 98 | 148 | 2.6 | 5.2 | 0.00 | 0.00 | 0.00 | 39 | 1013.4 |
| 20260906202401 | 98 | 93 | 0.9 | 5.2 | 0.00 | 0.00 | 0.00 | 39 | 1013.2 |
| 20260906201901 | 101 | 140 | 3.5 | 7.8 | 0.00 | 0.00 | 0.00 | 39 | 1013.4 |
| 20260906201355 | 100 | 162 | 2.6 | 4.3 | 0.00 | 0.00 | 0.00 | 38 | 1013.5 |
| 20260906200851 | 100 | 97 | 4.3 | 7.8 | 0.00 | 0.00 | 0.00 | 38 | 1013.3 |
| 20260906200348 | 100 | 187 | 6.1 | 7.0 | 0.00 | 0.00 | 0.00 | 38 | 1013.5 |
| 20260906195841 | 100 | 250 | 0.9 | 1.7 | 0.00 | 0.00 | 0.00 | 38 | 1013.5 |
| 20260906195338 | 101 | 131 | 4.3 | 7.8 | 0.00 | 0.00 | 0.00 | 39 | 1013.5 |
| 20260906194834 | 101 | 126 | 2.6 | 5.2 | 0.00 | 0.00 | 0.00 | 38 | 1013.7 |
| 20260906194329 | 100 | 76 | 2.6 | 7.8 | 0.00 | 0.00 | 0.00 | 39 | 1013.8 |
| 20260906193824 | 99 | 124 | 4.3 | 7.0 | 0.00 | 0.00 | 0.00 | 39 | 1013.7 |
| 20260906193319 | 101 | 238 | 2.6 | 4.3 | 0.00 | 0.00 | 0.00 | 38 | 1013.8 |
| 20260906192816 | 100 | 153 | 3.5 | 7.8 | 0.00 | 0.00 | 0.00 | 39 | 1013.8 |
| 20260906192315 | 99 | 253 | 1.7 | 5.2 | 0.00 | 0.00 | 0.00 | 41 | 1014.1 |
| 20260906191814 | 100 | 235 | 1.7 | 5.2 | 0.00 | 0.00 | 0.00 | 39 | 1013.8 |
| 20260906191309 | 100 | 77 | 4.3 | 8.7 | 0.00 | 0.00 | 0.00 | 39 | 1014.4 |
| 20260906190803 | 100 | 114 | 3.5 | 11.3 | 0.00 | 0.00 | 0.00 | 39 | 1014.1 |
| 20260906190257 | 99 | 127 | 2.6 | 6.1 | 0.00 | 0.00 | 0.00 | 39 | 1014.4 |
| 20260906185757 | 99 | 93 | 3.5 | 7.8 | 0.00 | 0.00 | 0.00 | 41 | 1014.4 |
| 20260906185256 | 96 | 76 | 0.0 | 1.7 | 0.00 | 0.00 | 0.00 | 43 | 1014.4 |
| 20260906184751 | 96 | 60 | 2.6 | 5.2 | 0.00 | 0.00 | 0.00 | 43 | 1014.5 |
| 20260906184246 | 96 | 212 | 4.3 | 6.1 | 0.00 | 0.00 | 0.00 | 43 | 1014.6 |
| 20260906183742 | 96 | 69 | 2.6 | 4.3 | 0.00 | 0.00 | 0.00 | 43 | 1014.7 |
| 20260906183238 | 96 | 142 | 0.9 | 6.1 | 0.00 | 0.00 | 0.00 | 42 | 1014.8 |
| 20260906182737 | 96 | 126 | 7.0 | 7.8 | 0.00 | 0.00 | 0.00 | 43 | 1014.7 |
| 20260906182234 | 99 | 358 | 4.3 | 9.6 | 0.00 | 0.00 | 0.00 | 42 | 1014.8 |
| 20260906181728 | 98 | 1 | 0.9 | 2.6 | 0.00 | 0.00 | 0.00 | 42 | 1014.8 |
| 20260906181225 | 96 | 185 | 0.9 | 1.7 | 0.00 | 0.00 | 0.00 | 43 | 1014.9 |
| 20260906180725 | 96 | 182 | 1.7 | 4.3 | 0.00 | 0.00 | 0.00 | 45 | 1015.1 |
| 20260906180220 | 97 | 195 | 3.5 | 7.0 | 0.00 | 0.00 | 0.00 | 44 | 1015.0 |
| 20260906175718 | 98 | 190 | 6.1 | 8.7 | 0.00 | 0.00 | 0.00 | 43 | 1015.2 |
| 20260906175214 | 98 | 254 | 2.6 | 6.1 | 0.00 | 0.00 | 0.00 | 43 | 1015.2 |
| 20260906174712 | 98 | 214 | 0.0 | 1.7 | 0.00 | 0.00 | 0.00 | 42 | 1015.3 |
| 20260906174206 | 99 | 99 | 2.6 | 4.3 | 0.00 | 0.00 | 0.00 | 42 | 1015.5 |
| 20260906173702 | 97 | 61 | 2.6 | 6.1 | 0.00 | 0.00 | 0.00 | 42 | 1015.5 |
| 20260906173157 | 96 | 214 | 2.6 | 5.2 | 0.00 | 0.00 | 0.00 | 45 | 1015.4 |
| 20260906172656 | 95 | 199 | 7.0 | 8.7 | 0.00 | 0.00 | 0.00 | 46 | 1015.7 |
| 20260906172152 | 96 | 196 | 4.3 | 7.0 | 0.00 | 0.00 | 0.00 | 46 | 1015.6 |
| 20260906171652 | 98 | 272 | 0.0 | 1.7 | 0.00 | 0.00 | 0.00 | 44 | 1015.8 |
| 20260906171147 | 97 | 188 | 4.3 | 6.1 | 0.00 | 0.00 | 0.00 | 43 | 1016.2 |
| 20260906170643 | 96 | 81 | 0.9 | 8.7 | 0.00 | 0.00 | 0.00 | 44 | 1016.1 |
| 20260906170143 | 97 | 53 | 0.9 | 1.7 | 0.00 | 0.00 | 0.00 | 44 | 1016.0 |
| 20260906165639 | 96 | 12 | 0.0 | 4.3 | 0.00 | 0.00 | 0.00 | 45 | 1015.9 |
| 20260906165135 | 95 | 221 | 3.5 | 5.2 | 0.00 | 0.00 | 0.00 | 46 | 1016.2 |
| 20260906164633 | 96 | 206 | 5.2 | 7.0 | 0.00 | 0.00 | 0.00 | 46 | 1016.3 |
| 20260906164129 | 96 | 9 | 1.7 | 2.6 | 0.00 | 0.00 | 0.00 | 45 | 1016.3 |
| 20260906163625 | 95 | 341 | 0.9 | 4.3 | 0.00 | 0.00 | 0.00 | 46 | 1016.4 |
| 20260906163120 | 96 | 220 | 3.5 | 5.2 | 0.00 | 0.00 | 0.00 | 45 | 1016.3 |
| 20260906162618 | 95 | 195 | 4.3 | 5.2 | 0.00 | 0.00 | 0.00 | 47 | 1016.3 |
| 20260906162112 | 95 | 187 | 2.6 | 2.6 | 0.00 | 0.00 | 0.00 | 47 | 1016.2 |
| 20260906161612 | 95 | 170 | 2.6 | 4.3 | 0.00 | 0.00 | 0.00 | 47 | 1016.2 |
| 20260906161111 | 94 | 342 | 0.9 | 1.7 | 0.00 | 0.00 | 0.00 | 48 | 1016.4 |
| 20260906160610 | 93 | 246 | 0.9 | 4.3 | 0.00 | 0.00 | 0.00 | 50 | 1016.1 |
| 20260906160109 | 92 | 297 | 2.6 | 4.3 | 0.00 | 0.00 | 0.00 | 52 | 1016.2 |
| 20260906155607 | 92 | 225 | 0.9 | 4.3 | 0.00 | 0.00 | 0.00 | 52 | 1016.2 |
| 20260906155103 | 92 | 319 | 0.0 | 2.6 | 0.00 | 0.00 | 0.00 | 52 | 1016.3 |
| 20260906154558 | 92 | 249 | 1.7 | 2.6 | 0.00 | 0.00 | 0.00 | 52 | 1016.2 |
| 20260906154057 | 91 | 212 | 1.7 | 4.3 | 0.00 | 0.00 | 0.00 | 54 | 1016.3 |
| 20260906153556 | 90 | 195 | 0.9 | 1.7 | 0.00 | 0.00 | 0.00 | 54 | 1016.0 |
| 20260906153052 | 89 | 225 | 0.9 | 2.6 | 0.00 | 0.00 | 0.00 | 56 | 1016.2 |
| 20260906152551 | 89 | 234 | 2.6 | 4.3 | 0.00 | 0.00 | 0.00 | 56 | 1016.0 |
| 20260906152051 | 89 | 193 | 1.7 | 1.7 | 0.00 | 0.00 | 0.00 | 56 | 1016.1 |
| 20260906151546 | 89 | 284 | 1.7 | 2.6 | 0.00 | 0.00 | 0.00 | 56 | 1016.0 |
| 20260906151042 | 89 | 242 | 0.9 | 4.3 | 0.00 | 0.00 | 0.00 | 56 | 1015.9 |
| 20260906150537 | 89 | 193 | 3.5 | 4.3 | 0.00 | 0.00 | 0.00 | 56 | 1016.0 |
| 20260906150032 | 88 | 237 | 4.3 | 5.2 | 0.00 | 0.00 | 0.00 | 57 | 1015.8 |
| 20260906145531 | 88 | 227 | 3.5 | 4.3 | 0.00 | 0.00 | 0.00 | 57 | 1015.9 |
| 20260906145026 | 88 | 249 | 3.5 | 5.2 | 0.00 | 0.00 | 0.00 | 57 | 1015.8 |
| 20260906144520 | 87 | 224 | 4.3 | 5.2 | 0.00 | 0.00 | 0.00 | 59 | 1015.9 |
| 20260906144016 | 87 | 243 | 4.3 | 5.2 | 0.00 | 0.00 | 0.00 | 58 | 1015.9 |
| 20260906143510 | 86 | 219 | 2.6 | 5.2 | 0.00 | 0.00 | 0.00 | 59 | 1016.0 |
| 20260906143008 | 86 | 208 | 3.5 | 7.0 | 0.00 | 0.00 | 0.00 | 60 | 1015.8 |
| 20260906142507 | 86 | 235 | 3.5 | 5.2 | 0.00 | 0.00 | 0.00 | 60 | 1016.0 |
| 20260906142003 | 86 | 220 | 0.9 | 4.3 | 0.00 | 0.00 | 0.00 | 60 | 1015.9 |
| 20260906141501 | 85 | 212 | 2.6 | 4.3 | 0.00 | 0.00 | 0.00 | 61 | 1015.8 |
| 20260906140956 | 85 | 211 | 3.5 | 4.3 | 0.00 | 0.00 | 0.00 | 61 | 1016.0 |
| 20260906140450 | 84 | 247 | 2.6 | 6.1 | 0.00 | 0.00 | 0.00 | 62 | 1015.9 |
| 20260906135948 | 84 | 184 | 3.5 | 4.3 | 0.00 | 0.00 | 0.00 | 62 | 1015.6 |
| 20260906135447 | 84 | 214 | 3.5 | 5.2 | 0.00 | 0.00 | 0.00 | 62 | 1015.7 |
| 20260906134943 | 83 | 220 | 2.6 | 5.2 | 0.00 | 0.00 | 0.00 | 63 | 1015.8 |
| 20260906134438 | 83 | 205 | 3.5 | 6.1 | 0.00 | 0.00 | 0.00 | 63 | 1015.7 |
| 20260906133933 | 83 | 230 | 2.6 | 4.3 | 0.00 | 0.00 | 0.00 | 64 | 1015.5 |
| 20260906133429 | 83 | 208 | 3.5 | 4.3 | 0.00 | 0.00 | 0.00 | 63 | 1015.7 |
| 20260906132925 | 82 | 198 | 1.7 | 2.6 | 0.00 | 0.00 | 0.00 | 64 | 1015.8 |
| 20260906132419 | 82 | 214 | 1.7 | 2.6 | 0.00 | 0.00 | 0.00 | 65 | 1015.8 |
| 20260906131915 | 81 | 189 | 2.6 | 2.6 | 0.00 | 0.00 | 0.00 | 66 | 1015.6 |
| 20260906131410 | 81 | 235 | 0.9 | 1.7 | 0.00 | 0.00 | 0.00 | 67 | 1015.7 |
| 20260906130906 | 80 | 225 | 1.7 | 2.6 | 0.00 | 0.00 | 0.00 | 67 | 1015.2 |
| 20260906130405 | 80 | 211 | 1.7 | 1.7 | 0.00 | 0.00 | 0.00 | 68 | 1015.4 |
| 20260906125904 | 79 | 201 | 0.9 | 0.9 | 0.00 | 0.00 | 0.00 | 69 | 1015.5 |
| 20260906125401 | 79 | 220 | 0.0 | 0.0 | 0.00 | 0.00 | 0.00 | 70 | 1015.3 |
| 20260906124856 | 78 | 264 | 0.0 | 0.0 | 0.00 | 0.00 | 0.00 | 70 | 1015.1 |
| 20260906124352 | 78 | 268 | 0.0 | 0.0 | 0.00 | 0.00 | 0.00 | 70 | 1015.2 |
| 20260906123851 | 78 | 274 | 0.0 | 0.9 | 0.00 | 0.00 | 0.00 | 71 | 1015.2 |
| 20260906123346 | 78 | 261 | 0.9 | 0.9 | 0.00 | 0.00 | 0.00 | 71 | 1015.1 |
| 20260906122841 | 78 | 213 | 0.0 | 0.9 | 0.00 | 0.00 | 0.00 | 71 | 1015.1 |
| 20260906122341 | 78 | 211 | 0.0 | 0.9 | 0.00 | 0.00 | 0.00 | 71 | 1015.2 |
| 20260906121838 | 78 | 303 | 0.0 | 0.0 | 0.00 | 0.00 | 0.00 | 70 | 1015.0 |
| 20260906121333 | 78 | 263 | 0.0 | 0.0 | 0.00 | 0.00 | 0.00 | 70 | 1015.0 |
| 20260906120830 | 78 | 255 | 0.0 | 0.0 | 0.00 | 0.00 | 0.00 | 71 | 1014.8 |
| 20260906120325 | 78 | 230 | 0.0 | 0.0 | 0.00 | 0.00 | 0.00 | 70 | 1014.8 |
| 20260906115821 | 78 | 208 | 0.0 | 0.9 | 0.00 | 0.00 | 0.00 | 70 | 1014.8 |
| 20260906115316 | 78 | 227 | 0.9 | 1.7 | 0.00 | 0.00 | 0.00 | 70 | 1014.7 |
| 20260906114816 | 78 | 241 | 0.0 | 0.0 | 0.00 | 0.00 | 0.00 | 69 | 1014.6 |
| 20260906114312 | 78 | 251 | 0.0 | 0.0 | 0.00 | 0.00 | 0.00 | 70 | 1014.6 |
| 20260906113812 | 78 | 290 | 0.0 | 0.0 | 0.00 | 0.00 | 0.00 | 70 | 1014.7 |
| 20260906113311 | 78 | 294 | 0.0 | 0.0 | 0.00 | 0.00 | 0.00 | 69 | 1014.6 |
| 20260906112806 | 78 | 181 | 0.9 | 1.7 | 0.00 | 0.00 | 0.00 | 69 | 1014.6 |
| 20260906112257 | 78 | 260 | 0.0 | 0.0 | 0.00 | 0.00 | 0.00 | 69 | 1014.5 |
| 20260906111757 | 78 | 305 | 0.0 | 0.0 | 0.00 | 0.00 | 0.00 | 68 | 1014.5 |
| 20260906111256 | 77 | 305 | 0.0 | 0.0 | 0.00 | 0.00 | 0.00 | 69 | 1014.5 |
| 20260906110752 | 78 | 324 | 0.0 | 0.0 | 0.00 | 0.00 | 0.00 | 69 | 1014.3 |
| 20260906110247 | 78 | 300 | 0.0 | 0.0 | 0.00 | 0.00 | 0.00 | 68 | 1014.3 |
| 20260906105746 | 78 | 276 | 0.0 | 0.9 | 0.00 | 0.00 | 0.00 | 68 | 1013.8 |
| 20260906105242 | 78 | 237 | 0.0 | 0.9 | 0.00 | 0.00 | 0.00 | 67 | 1014.2 |
| 20260906104737 | 79 | 229 | 0.0 | 0.9 | 0.00 | 0.00 | 0.00 | 67 | 1014.0 |
| 20260906104236 | 79 | 259 | 0.0 | 1.7 | 0.00 | 0.00 | 0.00 | 67 | 1014.0 |
| 20260906103734 | 79 | 274 | 0.0 | 0.9 | 0.00 | 0.00 | 0.00 | 67 | 1014.1 |
| 20260906103233 | 79 | 249 | 0.9 | 2.6 | 0.00 | 0.00 | 0.00 | 66 | 1014.1 |
| 20260906102730 | 79 | 207 | 1.7 | 1.7 | 0.00 | 0.00 | 0.00 | 66 | 1014.2 |
| 20260906102229 | 79 | 151 | 1.7 | 4.3 | 0.00 | 0.00 | 0.00 | 66 | 1014.1 |
| 20260906101724 | 80 | 211 | 2.6 | 2.6 | 0.00 | 0.00 | 0.00 | 66 | 1013.8 |
| 20260906101219 | 80 | 215 | 1.7 | 2.6 | 0.00 | 0.00 | 0.00 | 65 | 1014.0 |
| 20260906100715 | 80 | 198 | 2.6 | 2.6 | 0.00 | 0.00 | 0.00 | 65 | 1013.8 |
| 20260906100214 | 80 | 222 | 0.9 | 1.7 | 0.00 | 0.00 | 0.00 | 65 | 1014.2 |
| 20260906095714 | 80 | 238 | 1.7 | 2.6 | 0.00 | 0.00 | 0.00 | 65 | 1014.3 |
| 20260906095210 | 80 | 193 | 2.6 | 2.6 | 0.00 | 0.00 | 0.00 | 65 | 1014.2 |
| 20260906094708 | 80 | 208 | 2.6 | 2.6 | 0.00 | 0.00 | 0.00 | 65 | 1014.4 |
| 20260906094204 | 79 | 222 | 0.9 | 0.9 | 0.00 | 0.00 | 0.00 | 65 | 1014.1 |
| 20260906093701 | 79 | 208 | 0.9 | 0.9 | 0.00 | 0.00 | 0.00 | 66 | 1014.1 |
| 20260906093156 | 79 | 292 | 0.0 | 0.0 | 0.00 | 0.00 | 0.00 | 66 | 1014.1 |
| 20260906092651 | 79 | 288 | 0.0 | 0.0 | 0.00 | 0.00 | 0.00 | 67 | 1014.3 |
| 20260906092150 | 78 | 291 | 0.0 | 0.0 | 0.00 | 0.00 | 0.00 | 68 | 1014.4 |
| 20260906091647 | 78 | 311 | 0.0 | 0.0 | 0.00 | 0.00 | 0.00 | 68 | 1014.1 |
| 20260906091143 | 78 | 295 | 0.0 | 0.0 | 0.00 | 0.00 | 0.00 | 68 | 1014.3 |
| 20260906090639 | 78 | 314 | 0.0 | 0.0 | 0.00 | 0.00 | 0.00 | 69 | 1014.3 |
| 20260906090133 | 78 | 314 | 0.0 | 0.0 | 0.00 | 0.00 | 0.00 | 68 | 1014.3 |
| 20260906085631 | 78 | 314 | 0.0 | 0.0 | 0.00 | 0.00 | 0.00 | 68 | 1014.3 |
| 20260906085126 | 78 | 314 | 0.0 | 0.0 | 0.00 | 0.00 | 0.00 | 69 | 1014.2 |
| 20260906084620 | 78 | 314 | 0.0 | 0.0 | 0.00 | 0.00 | 0.00 | 68 | 1013.8 |
| 20260906084119 | 79 | 314 | 0.0 | 0.0 | 0.00 | 0.00 | 0.00 | 66 | 1013.7 |
| 20260906083615 | 80 | 313 | 0.0 | 0.0 | 0.00 | 0.00 | 0.00 | 65 | 1013.8 |
| 20260906083115 | 80 | 302 | 0.0 | 0.0 | 0.00 | 0.00 | 0.00 | 65 | 1014.0 |
| 20260906082610 | 80 | 275 | 0.0 | 0.0 | 0.00 | 0.00 | 0.00 | 65 | 1014.1 |
| 20260906082106 | 79 | 315 | 0.0 | 0.0 | 0.00 | 0.00 | 0.00 | 66 | 1014.1 |
| 20260906081601 | 79 | 315 | 0.0 | 0.0 | 0.00 | 0.00 | 0.00 | 67 | 1014.1 |
| 20260906081056 | 79 | 315 | 0.0 | 0.0 | 0.00 | 0.00 | 0.00 | 67 | 1014.2 |
| 20260906080553 | 79 | 315 | 0.0 | 0.0 | 0.00 | 0.00 | 0.00 | 66 | 1014.2 |
| 20260906080049 | 79 | 315 | 0.0 | 0.0 | 0.00 | 0.00 | 0.00 | 66 | 1014.0 |
| 20260906075549 | 79 | 315 | 0.0 | 0.0 | 0.00 | 0.00 | 0.00 | 67 | 1014.1 |
| 20260906075044 | 79 | 315 | 0.0 | 0.0 | 0.00 | 0.00 | 0.00 | 67 | 1014.0 |
| 20260906074538 | 79 | 315 | 0.0 | 0.0 | 0.00 | 0.00 | 0.00 | 66 | 1014.1 |
| 20260906074037 | 79 | 315 | 0.0 | 0.0 | 0.00 | 0.00 | 0.00 | 66 | 1014.2 |
| 20260906073532 | 79 | 315 | 0.0 | 0.0 | 0.00 | 0.00 | 0.00 | 66 | 1014.1 |
| 20260906073028 | 79 | 315 | 0.0 | 0.0 | 0.00 | 0.00 | 0.00 | 65 | 1013.8 |
| 20260906072523 | 80 | 315 | 0.0 | 0.0 | 0.00 | 0.00 | 0.00 | 65 | 1013.8 |
| 20260906072019 | 80 | 315 | 0.0 | 0.0 | 0.00 | 0.00 | 0.00 | 63 | 1014.0 |
| 20260906071515 | 81 | 315 | 0.0 | 0.0 | 0.00 | 0.00 | 0.00 | 63 | 1013.8 |
| 20260906071010 | 81 | 315 | 0.0 | 0.0 | 0.00 | 0.00 | 0.00 | 62 | 1014.0 |
| 20260906070507 | 81 | 315 | 0.0 | 0.0 | 0.00 | 0.00 | 0.00 | 61 | 1014.0 |
| 20260906070002 | 82 | 315 | 0.0 | 0.0 | 0.00 | 0.00 | 0.00 | 60 | 1014.0 |
| 20260906065501 | 82 | 315 | 0.0 | 0.0 | 0.00 | 0.00 | 0.00 | 60 | 1013.8 |
| 20260906064957 | 82 | 310 | 0.0 | 0.0 | 0.00 | 0.00 | 0.00 | 59 | 1013.7 |
| 20260906064453 | 83 | 279 | 0.0 | 0.0 | 0.00 | 0.00 | 0.00 | 58 | 1013.8 |
| 20260906063954 | 83 | 272 | 0.0 | 0.0 | 0.00 | 0.00 | 0.00 | 58 | 1013.8 |
| 20260906063450 | 83 | 286 | 0.0 | 0.0 | 0.00 | 0.00 | 0.00 | 58 | 1013.8 |
| 20260906062949 | 83 | 281 | 0.0 | 0.0 | 0.00 | 0.00 | 0.00 | 57 | 1014.1 |
| 20260906062444 | 84 | 239 | 0.0 | 0.9 | 0.00 | 0.00 | 0.00 | 57 | 1014.2 |
| 20260906061939 | 83 | 249 | 0.0 | 0.9 | 0.00 | 0.00 | 0.00 | 57 | 1014.1 |
| 20260906061435 | 83 | 277 | 0.0 | 0.0 | 0.00 | 0.00 | 0.00 | 57 | 1014.2 |
| 20260906060929 | 83 | 305 | 0.0 | 0.0 | 0.00 | 0.00 | 0.00 | 58 | 1014.1 |
| 20260906060427 | 83 | 298 | 0.0 | 0.0 | 0.00 | 0.00 | 0.00 | 57 | 1013.8 |
| 20260906055923 | 84 | 254 | 0.0 | 0.0 | 0.00 | 0.00 | 0.00 | 57 | 1014.1 |
| 20260906055418 | 84 | 278 | 0.0 | 0.9 | 0.00 | 0.00 | 0.00 | 56 | 1014.0 |
| 20260906054914 | 84 | 276 | 0.9 | 0.9 | 0.00 | 0.00 | 0.00 | 56 | 1014.2 |
| 20260906054408 | 84 | 264 | 0.0 | 1.7 | 0.00 | 0.00 | 0.00 | 56 | 1014.3 |
| 20260906053904 | 84 | 266 | 0.0 | 0.9 | 0.00 | 0.00 | 0.00 | 56 | 1014.1 |
| 20260906053400 | 84 | 262 | 0.0 | 0.9 | 0.00 | 0.00 | 0.00 | 56 | 1013.7 |
| 20260906052855 | 84 | 258 | 0.9 | 1.7 | 0.00 | 0.00 | 0.00 | 55 | 1013.7 |
| 20260906052352 | 85 | 248 | 0.9 | 1.7 | 0.00 | 0.00 | 0.00 | 55 | 1013.8 |
| 20260906051849 | 84 | 242 | 0.0 | 0.9 | 0.00 | 0.00 | 0.00 | 56 | 1014.0 |
| 20260906051348 | 85 | 221 | 0.9 | 0.9 | 0.00 | 0.00 | 0.00 | 55 | 1013.7 |
| 20260906050845 | 85 | 224 | 0.9 | 1.7 | 0.00 | 0.00 | 0.00 | 55 | 1013.6 |
| 20260906050339 | 85 | 202 | 0.9 | 1.7 | 0.00 | 0.00 | 0.00 | 55 | 1013.6 |
| 20260906045838 | 85 | 206 | 1.7 | 2.6 | 0.00 | 0.00 | 0.00 | 54 | 1013.6 |
| 20260906045332 | 86 | 188 | 1.7 | 2.6 | 0.00 | 0.00 | 0.00 | 53 | 1013.7 |
| 20260906044829 | 86 | 220 | 1.7 | 2.6 | 0.00 | 0.00 | 0.00 | 53 | 1013.5 |
| 20260906044329 | 86 | 221 | 2.6 | 4.3 | 0.00 | 0.00 | 0.00 | 53 | 1013.8 |
| 20260906043826 | 86 | 203 | 1.7 | 2.6 | 0.00 | 0.00 | 0.00 | 53 | 1013.8 |
| 20260906043321 | 86 | 246 | 0.0 | 1.7 | 0.00 | 0.00 | 0.00 | 53 | 1014.0 |
| 20260906042820 | 86 | 234 | 0.9 | 1.7 | 0.00 | 0.00 | 0.00 | 52 | 1013.5 |
| 20260906042319 | 86 | 227 | 0.9 | 2.6 | 0.00 | 0.00 | 0.00 | 52 | 1013.6 |
| 20260906041815 | 86 | 211 | 0.9 | 1.7 | 0.00 | 0.00 | 0.00 | 52 | 1013.6 |
| 20260906041310 | 87 | 170 | 2.6 | 4.3 | 0.00 | 0.00 | 0.00 | 52 | 1013.6 |
| 20260906040805 | 87 | 221 | 0.9 | 1.7 | 0.00 | 0.00 | 0.00 | 52 | 1013.8 |
| 20260906040301 | 87 | 225 | 1.7 | 1.7 | 0.00 | 0.00 | 0.00 | 52 | 1013.6 |
| 20260906035756 | 87 | 219 | 1.7 | 2.6 | 0.00 | 0.00 | 0.00 | 51 | 1013.8 |
| 20260906035252 | 87 | 238 | 0.9 | 2.6 | 0.00 | 0.00 | 0.00 | 51 | 1013.7 |
| 20260906034751 | 87 | 199 | 0.9 | 1.7 | 0.00 | 0.00 | 0.00 | 51 | 1013.7 |
| 20260906034246 | 87 | 177 | 1.7 | 2.6 | 0.00 | 0.00 | 0.00 | 51 | 1013.6 |
| 20260906033742 | 87 | 200 | 2.6 | 2.6 | 0.00 | 0.00 | 0.00 | 51 | 1013.7 |
| 20260906033241 | 88 | 183 | 1.7 | 2.6 | 0.00 | 0.00 | 0.00 | 50 | 1013.5 |
| 20260906032738 | 88 | 197 | 0.9 | 2.6 | 0.00 | 0.00 | 0.00 | 50 | 1013.6 |
| 20260906032238 | 88 | 194 | 2.6 | 4.3 | 0.00 | 0.00 | 0.00 | 50 | 1013.4 |
| 20260906031733 | 88 | 220 | 1.7 | 4.3 | 0.00 | 0.00 | 0.00 | 49 | 1013.6 |
| 20260906031229 | 89 | 200 | 1.7 | 2.6 | 0.00 | 0.00 | 0.00 | 48 | 1013.5 |
| 20260906030729 | 89 | 211 | 0.9 | 1.7 | 0.00 | 0.00 | 0.00 | 49 | 1013.7 |
| 20260906030224 | 89 | 191 | 1.7 | 2.6 | 0.00 | 0.00 | 0.00 | 49 | 1013.3 |
| 20260906025723 | 89 | 241 | 0.9 | 2.6 | 0.00 | 0.00 | 0.00 | 49 | 1013.7 |
| 20260906025218 | 89 | 199 | 0.9 | 1.7 | 0.00 | 0.00 | 0.00 | 48 | 1013.6 |
| 20260906024717 | 89 | 210 | 1.7 | 2.6 | 0.00 | 0.00 | 0.00 | 48 | 1013.4 |
| 20260906024216 | 90 | 223 | 0.9 | 1.7 | 0.00 | 0.00 | 0.00 | 48 | 1013.5 |
| 20260906023712 | 90 | 211 | 1.7 | 1.7 | 0.00 | 0.00 | 0.00 | 48 | 1013.4 |
| 20260906023213 | 90 | 179 | 1.7 | 4.3 | 0.00 | 0.00 | 0.00 | 48 | 1013.3 |
| 20260906022708 | 90 | 224 | 0.9 | 0.9 | 0.00 | 0.00 | 0.00 | 48 | 1013.4 |
| 20260906022158 | 90 | 213 | 1.7 | 1.7 | 0.00 | 0.00 | 0.00 | 47 | 1013.0 |
| 20260906021654 | 90 | 201 | 0.9 | 1.7 | 0.00 | 0.00 | 0.00 | 47 | 1013.1 |
| 20260906021152 | 90 | 219 | 0.0 | 0.0 | 0.00 | 0.00 | 0.00 | 47 | 1013.1 |
| 20260906020647 | 90 | 230 | 0.0 | 0.0 | 0.00 | 0.00 | 0.00 | 47 | 1013.1 |
| 20260906020142 | 91 | 260 | 0.0 | 0.0 | 0.00 | 0.00 | 0.00 | 47 | 1013.1 |
| 20260906015641 | 91 | 152 | 0.0 | 0.0 | 0.00 | 0.00 | 0.00 | 47 | 1013.0 |
| 20260906015141 | 91 | 203 | 0.0 | 0.0 | 0.00 | 0.00 | 0.00 | 46 | 1013.1 |
| 20260906014641 | 91 | 176 | 0.0 | 0.0 | 0.00 | 0.00 | 0.00 | 46 | 1013.0 |
| 20260906014137 | 91 | 258 | 0.0 | 0.0 | 0.00 | 0.00 | 0.00 | 46 | 1013.0 |
| 20260906013632 | 92 | 271 | 0.0 | 0.9 | 0.00 | 0.00 | 0.00 | 45 | 1012.7 |
| 20260906013128 | 92 | 190 | 0.9 | 1.7 | 0.00 | 0.00 | 0.00 | 45 | 1012.6 |
| 20260906012627 | 92 | 161 | 0.9 | 1.7 | 0.00 | 0.00 | 0.00 | 44 | 1012.5 |
| 20260906012122 | 92 | 206 | 0.9 | 1.7 | 0.00 | 0.00 | 0.00 | 45 | 1012.6 |
| 20260906011619 | 93 | 231 | 0.0 | 1.7 | 0.00 | 0.00 | 0.00 | 44 | 1012.2 |
| 20260906011119 | 93 | 215 | 0.0 | 0.9 | 0.00 | 0.00 | 0.00 | 44 | 1012.4 |
| 20260906010614 | 93 | 223 | 0.9 | 1.7 | 0.00 | 0.00 | 0.00 | 43 | 1012.2 |
| 20260906010110 | 93 | 156 | 1.7 | 2.6 | 0.00 | 0.00 | 0.00 | 43 | 1012.5 |
| 20260906005610 | 94 | 181 | 0.0 | 1.7 | 0.00 | 0.00 | 0.00 | 42 | 1012.2 |
| 20260906005109 | 94 | 218 | 1.7 | 2.6 | 0.00 | 0.00 | 0.00 | 42 | 1012.3 |
| 20260906004608 | 95 | 190 | 1.7 | 2.6 | 0.00 | 0.00 | 0.00 | 41 | 1012.3 |
| 20260906004103 | 95 | 132 | 0.9 | 2.6 | 0.00 | 0.00 | 0.00 | 41 | 1012.4 |
| 20260906003558 | 95 | 201 | 0.9 | 4.3 | 0.00 | 0.00 | 0.00 | 41 | 1012.3 |
| 20260906003055 | 95 | 196 | 1.7 | 5.2 | 0.00 | 0.00 | 0.00 | 40 | 1012.3 |
| 20260906002555 | 96 | 113 | 2.6 | 6.1 | 0.00 | 0.00 | 0.00 | 40 | 1012.3 |
| 20260906002049 | 96 | 175 | 2.6 | 5.2 | 0.00 | 0.00 | 0.00 | 40 | 1012.4 |
| 20260906001545 | 96 | 356 | 1.7 | 4.3 | 0.00 | 0.00 | 0.00 | 40 | 1012.4 |
| 20260906001039 | 96 | 247 | 1.7 | 5.2 | 0.00 | 0.00 | 0.00 | 40 | 1012.3 |
| 20260906000535 | 97 | 157 | 4.3 | 6.1 | 0.00 | 0.00 | 0.00 | 39 | 1012.4 |
| 20260906000030 | 97 | 137 | 2.6 | 5.2 | 0.00 | 0.00 | 0.00 | 39 | 1012.4 |
| 20260905235529 | 97 | 86 | 3.5 | 6.1 | 0.00 | 0.00 | 0.00 | 39 | 1012.1 |
| 20260905235025 | 98 | 97 | 1.7 | 5.2 | 0.00 | 0.00 | 0.00 | 39 | 1012.1 |
| 20260905234521 | 98 | 105 | 1.7 | 4.3 | 0.00 | 0.00 | 0.00 | 39 | 1012.0 |
| 20260905234020 | 98 | 84 | 2.6 | 5.2 | 0.00 | 0.00 | 0.00 | 38 | 1012.1 |
| 20260905233515 | 98 | 73 | 3.5 | 6.1 | 0.00 | 0.00 | 0.00 | 38 | 1012.0 |
| 20260905233015 | 98 | 74 | 2.6 | 5.2 | 0.00 | 0.00 | 0.00 | 38 | 1012.0 |
| 20260905232510 | 98 | 203 | 2.6 | 8.7 | 0.00 | 0.00 | 0.00 | 38 | 1011.8 |
| 20260905232006 | 98 | 174 | 4.3 | 6.1 | 0.00 | 0.00 | 0.00 | 38 | 1011.8 |
| 20260905231501 | 99 | 112 | 4.3 | 8.7 | 0.00 | 0.00 | 0.00 | 38 | 1011.9 |
| 20260905230958 | 99 | 133 | 0.9 | 5.2 | 0.00 | 0.00 | 0.00 | 37 | 1011.8 |
| 20260905230456 | 99 | 211 | 1.7 | 7.0 | 0.00 | 0.00 | 0.00 | 38 | 1011.9 |
| 20260905225954 | 98 | 136 | 1.7 | 5.2 | 0.00 | 0.00 | 0.00 | 37 | 1011.8 |
| 20260905225449 | 98 | 142 | 2.6 | 9.6 | 0.00 | 0.00 | 0.00 | 38 | 1012.1 |
| 20260905224944 | 99 | 183 | 5.2 | 9.6 | 0.00 | 0.00 | 0.00 | 37 | 1011.9 |
| 20260905224440 | 99 | 211 | 6.1 | 8.7 | 0.00 | 0.00 | 0.00 | 36 | 1011.8 |
| 20260905223939 | 99 | 161 | 2.6 | 5.2 | 0.00 | 0.00 | 0.00 | 37 | 1011.8 |
| 20260905223438 | 99 | 140 | 0.9 | 4.3 | 0.00 | 0.00 | 0.00 | 37 | 1012.1 |
| 20260905222938 | 99 | 140 | 6.1 | 9.6 | 0.00 | 0.00 | 0.00 | 36 | 1011.7 |
| 20260905222438 | 99 | 78 | 2.6 | 6.1 | 0.00 | 0.00 | 0.00 | 38 | 1011.9 |
| 20260905221934 | 98 | 149 | 6.1 | 8.7 | 0.00 | 0.00 | 0.00 | 38 | 1012.0 |
| 20260905221430 | 98 | 208 | 7.0 | 8.7 | 0.00 | 0.00 | 0.00 | 37 | 1011.9 |
| 20260905220926 | 99 | 116 | 3.5 | 6.1 | 0.00 | 0.00 | 0.00 | 38 | 1012.0 |
| 20260905220422 | 98 | 24 | 0.0 | 1.7 | 0.00 | 0.00 | 0.00 | 39 | 1011.7 |
| 20260905215921 | 100 | 345 | 1.7 | 4.3 | 0.00 | 0.00 | 0.00 | 37 | 1011.9 |
| 20260905215416 | 99 | 115 | 2.6 | 6.1 | 0.00 | 0.00 | 0.00 | 38 | 1012.0 |
| 20260905214913 | 99 | 179 | 3.5 | 7.8 | 0.00 | 0.00 | 0.00 | 39 | 1012.0 |
| 20260905214408 | 99 | 90 | 3.5 | 7.0 | 0.00 | 0.00 | 0.00 | 38 | 1012.2 |
| 20260905213908 | 99 | 153 | 7.0 | 12.2 | 0.00 | 0.00 | 0.00 | 39 | 1012.2 |
| 20260905213404 | 100 | 134 | 2.6 | 5.2 | 0.00 | 0.00 | 0.00 | 38 | 1012.2 |
| 20260905212859 | 100 | 133 | 3.5 | 7.0 | 0.00 | 0.00 | 0.00 | 37 | 1012.3 |
| 20260905212354 | 99 | 208 | 2.6 | 2.6 | 0.00 | 0.00 | 0.00 | 39 | 1012.2 |
| 20260905211853 | 99 | 199 | 6.1 | 8.7 | 0.00 | 0.00 | 0.00 | 39 | 1012.5 |
| 20260905211349 | 99 | 127 | 3.5 | 9.6 | 0.00 | 0.00 | 0.00 | 39 | 1012.7 |
| 20260905210846 | 98 | 178 | 4.3 | 8.7 | 0.00 | 0.00 | 0.00 | 39 | 1012.3 |
| 20260905210345 | 99 | 236 | 5.2 | 7.8 | 0.00 | 0.00 | 0.00 | 39 | 1012.2 |
| 20260905205844 | 99 | 194 | 2.6 | 8.7 | 0.00 | 0.00 | 0.00 | 39 | 1012.7 |